New Paris, IN

1:36 PM EST on February 23, 2017 (GMT -0500)
Goshen Municipal

Weather History for KGSH - November, 2013

Change the Weather History Date:

Wednesday, November 20, 2013

  Actual Average Record
Temperature  
Mean Temperature 36 °F -  
Max Temperature 45 °F 47 °F 67 °F (1985)
Min Temperature 27 °F 31 °F 15 °F (1964)
Degree Days  
Heating Degree Days 29    
Moisture  
Dew Point 27 °F    
Average Humidity 69    
Maximum Humidity 81    
Minimum Humidity 53    
Precipitation  
Precipitation 0.00 in - - ()
Sea Level Pressure  
Sea Level Pressure 30.29 in    
Wind  
Wind Speed 8 mph (SE)    
Max Wind Speed 15 mph    
Max Gust Speed 21 mph    
Visibility 10 miles    
Events      
Averages and records for this station are not official NWS values.
T = Trace of Precipitation, MM = Missing Value Source: NWS Daily Summary

Daily Weather History Graph

Daily Weather History Graph

Search for Another Location

Airport or City:

Trip Planner

Search our weather history database for the weather conditions in past years. The results will help you decide how hot, cold, wet, or windy it might be!

Date:

Astronomy

Nov. 20, 2013 Rise Set
Actual Time 7:38 AM EST 5:19 PM EST
Civil Twilight 7:08 AM EST 5:49 PM EST
Nautical Twilight 6:34 AM EST 6:23 PM EST
Astronomical Twilight 6:01 AM EST 6:56 PM EST
Moon 8:01 PM EST (11/20) 10:02 AM EST (11/20)
Length of Visible Light 10h 41m
Length of Day
9h 41m
Waning Gibbous, 91% of the Moon is Illuminated
Nov 20
Waning Gibbous
Nov 25
Last Quarter
Dec 2
New
Dec 9
First Quarter
Dec 17
Full

Hourly Weather History & Observations

Time (EST) Temp. Windchill Dew Point Humidity Pressure Visibility Wind Dir Wind Speed Gust Speed Precip Events Conditions
12:53 AM 30.9 °F 26.2 °F 24.1 °F 76% 30.37 in 10.0 mi ESE 4.6 mph - N/A   Clear
1:53 AM 28.0 °F 21.7 °F 23.0 °F 81% 30.37 in 10.0 mi ESE 5.8 mph - N/A   Clear
2:53 AM 28.9 °F 22.8 °F 23.0 °F 78% 30.38 in 10.0 mi SE 5.8 mph - N/A   Clear
3:53 AM 27.0 °F 19.5 °F 21.0 °F 78% 30.37 in 10.0 mi ESE 6.9 mph - N/A   Clear
4:53 AM 28.0 °F 21.7 °F 21.9 °F 78% 30.38 in 10.0 mi ESE 5.8 mph - N/A   Clear
5:53 AM 27.0 °F 21.6 °F 21.9 °F 81% 30.38 in 9.0 mi ESE 4.6 mph - N/A   Clear
6:53 AM 27.0 °F 20.5 °F 21.9 °F 81% 30.38 in 8.0 mi ESE 5.8 mph - N/A   Clear
7:53 AM 28.9 °F 19.2 °F 23.0 °F 78% 30.37 in 9.0 mi ESE 11.5 mph - N/A   Clear
8:53 AM 32.0 °F 23.6 °F 25.0 °F 75% 30.36 in 10.0 mi SE 10.4 mph - N/A   Clear
9:53 AM 34.0 °F 25.0 °F 26.1 °F 73% 30.34 in 10.0 mi SE 12.7 mph - N/A   Clear
10:53 AM 36.0 °F 26.7 °F 26.1 °F 67% 30.34 in 10.0 mi SE 15.0 mph 20.7 mph N/A   Clear
11:53 AM 39.0 °F 31.4 °F 27.0 °F 62% 30.32 in 10.0 mi SE 12.7 mph - N/A   Clear
12:53 PM 41.0 °F 34.3 °F 27.0 °F 57% 30.29 in 10.0 mi SE 11.5 mph 20.7 mph N/A   Clear
1:53 PM 43.0 °F - 28.0 °F 56% 30.25 in 10.0 mi North - - N/A   Clear
2:53 PM 44.1 °F 37.7 °F 28.0 °F 53% 30.22 in 10.0 mi SE 12.7 mph - N/A   Clear
3:53 PM 44.1 °F 37.4 °F 28.9 °F 55% 30.20 in 10.0 mi ESE 13.8 mph 19.6 mph N/A   Clear
4:53 PM 41.0 °F 35.2 °F 28.9 °F 62% 30.21 in 10.0 mi SE 9.2 mph - N/A   Clear
5:53 PM 39.0 °F 34.0 °F 30.0 °F 70% 30.22 in 10.0 mi ESE 6.9 mph - N/A   Clear
6:53 PM 39.9 °F 35.8 °F 30.0 °F 68% 30.22 in 10.0 mi SE 5.8 mph - N/A   Clear
7:53 PM 39.9 °F 35.1 °F 30.9 °F 70% 30.21 in 10.0 mi ESE 6.9 mph - N/A   Scattered Clouds
8:53 PM 41.0 °F 35.8 °F 32.0 °F 70% 30.19 in 10.0 mi ESE 8.1 mph - N/A   Overcast
9:53 PM 44.1 °F 37.4 °F 32.0 °F 63% 30.18 in 10.0 mi SSE 13.8 mph - N/A   Overcast
10:53 PM 45.0 °F 41.2 °F 32.0 °F 60% 30.22 in 10.0 mi South 6.9 mph - N/A   Overcast
11:53 PM 44.1 °F 42.5 °F 33.1 °F 65% 30.22 in 10.0 mi SSE 3.5 mph - N/A   Overcast